sat.trackr.live / text

‹ back to catalog

STARLINK-30467

NORAD 57895 · 2023-146E

PAYLOAD ACTIVE UNKNOWN

§ Identity

Operator
Country
US
Launch date
2023-09-20
Launch site
AFETR
Launch vehicle
Mass (kg)
RCS (m²)

Purposes: comms

External: N2YO · Heavens-Above · Gunter

§ Orbital elements

Epoch: 2026-09-20T09:01:08.718240Z

Period
94.27 min
Inclination
42.9983°
Eccentricity
0.0001415
Mean motion
15.27574694 rev/d
Perigee alt
482.1 km
Apogee alt
484.0 km
Semi-major
6,861.2 km
B*
6.5756e-5
RAAN
294.4927°
Arg perigee
268.0652°
Mean anomaly
92.0037°
Rev number
16,682

§ Raw data

STARLINK-304671 57895U 23146E   26263.37579535  .00001547  00000+0  65756-4 0  99922 57895  42.9983 294.4927 0001415 268.0652  92.0037 15.27574694166822

JSON: /api/v1/satellites/57895 · /tle

For live sub-satellite position, see the globe view (requires WebGL).

§ Visibility from observer

Set your observer location to see the next 7 days of passes ≥ 10°. The values pass through the URL so the page stays shareable.

No JS? Fill the form by hand. The geolocation button needs JavaScript.